Regional Weather Roundup
Issued by NWS Albany, NY

Home | Current Version | Previous Version | Text Only | Print | Product List | Glossary On
Versions: 1 2 3 4 5 6 7 8 9 10 11 12 13 14 15 16 17 18 19 20 21 22 23 24 25 26 27
000
ASUS41 KALY 221210
RWRALY

NEW YORK STATE HOURLY WEATHER ROUNDUP
NATIONAL WEATHER SERVICE ALBANY NY
800 AM EDT SAT JUL 22 2017

NOTE: "FAIR" INDICATES FEW OR NO CLOUDS BELOW 12,000 FEET WITH NO
SIGNIFICANT WEATHER AND/OR NO OBSTRUCTIONS TO VISIBILITY.

NYZ032-033-038>043-046>054-057>066-NYZ062>081-082-084-221300-
EAST


CITY           SKY/WX    TMP DP  RH WIND       PRES   REMARKS
ALBANY         CLOUDY    69  62  78 S5        29.91R
GLENS FALLS    PTSUNNY   67  61  81 CALM      29.90R
POUGHKEEPSIE   CLOUDY    69  65  86 CALM      29.90R
NEWBURGH       PTSUNNY   70  66  88 CALM      29.93R
MONTGOMERY     CLOUDY    71  61  70 CALM      29.91R
WHITE PLAINS   SUNNY     77  66  69 CALM      29.91
ISLIP          MOSUNNY   80  63  55 N10       29.88R
NEW YORK CITY  PTSUNNY   81  70  69 NE7       29.88R
CENTRAL PARK   SUNNY     79  64  60 VRB3      29.92R
$$

NYZ005>009-017-018-044>046-055-056-221300-
CENTRAL


CITY           SKY/WX    TMP DP  RH WIND       PRES   REMARKS
FULTON         CLOUDY    68  62  81 CALM      29.91R
SYRACUSE       CLOUDY    69  62  78 SW3       29.91R
ROME           CLOUDY    65  62  90 CALM      29.93R
ELMIRA         CLOUDY    67  66  97 W3        29.94S
BINGHAMTON     CLOUDY    65  64  97 W5        29.96S FOG
$$

NYZ026>034-041>043-087-221300-
NORTH


CITY           SKY/WX    TMP DP  RH WIND       PRES   REMARKS
WATERTOWN      CLOUDY    67  64  90 S3        29.88S
FORT DRUM      NOT AVBL
OGDENSBURG     FAIR      67  65  96 CALM      29.89R
MASSENA        SUNNY     69  65  86 CALM      29.90R
SARANAC LAKE   CLOUDY    62  62 100 SW5       29.92R
PLATTSBURGH    SUNNY     69  57  65 N12       29.89R
$$

NYZ001>004-010>016-019>021-085-221300-
WEST


CITY           SKY/WX    TMP DP  RH WIND       PRES   REMARKS
NIAGARA FALLS  PTSUNNY   73  65  75 CALM      29.90F
BUFFALO        CLOUDY    70  64  81 CALM      29.90F
DUNKIRK        MOSUNNY   69  63  81 CALM      29.91F
JAMESTOWN      CLOUDY    64  61  88 S3        29.96S
WELLSVILLE     CLOUDY    67  62  84 CALM      30.00S
ROCHESTER      CLOUDY    70  66  87 SW6       29.91F
PENN YAN       CLOUDY    69  64  84 SW5       29.94S
$$

             KEY
       WCI = WIND CHILL INDEX
       VSB = VISIBILITY
       HX  = HEAT INDEX
$$




USA.gov is the U.S. government's official web portal to all federal, state and local government web resources and services.